Regional Weather Roundup
Issued by NWS

Home | Current Version | Previous Version | Graphics & Text | Print | Product List | Glossary On
Versions: 1 2 3 4 5 6 7 8 9 10 11 12 13 14 15 16 17 18 19 20 21 22 23 24 25 26 27 28 29 30 31 32 33 34 35 36 37 38 39 40 41 42 43 44 45 46 47 48 49 50
000
ASUS43 KMKX 190811
RWRWI

WISCONSIN REGIONAL WEATHER ROUNDUP
NATIONAL WEATHER SERVICE MILWAUKEE/SULLIVAN WI
300 AM CDT SAT APR 19 2014

NOTE: "FAIR" INDICATES FEW OR NO CLOUDS BELOW 12,000 FEET WITH NO
SIGNIFICANT WEATHER AND/OR OBSTRUCTIONS TO VISIBILITY.

WIZ001-002-006>008-014>016-023>028-190900-
NORTHWEST WISCONSIN

CITY           SKY/WX    TMP DP  RH WIND       PRES   REMARKS
SUPERIOR ARPT  CLOUDY    32  28  87 NE10G16   30.29R WCI  23
ASHLAND        CLOUDY    30  27  88 N3        30.33F
HAYWARD        CLOUDY    38  20  48 SE7       30.27F WCI  33
SIREN          CLOUDY    42  22  46 SE9G18    30.21F
RICE LAKE      MOCLDY    39  26  59 SE15G21   30.28F WCI  31
LADYSMITH      CLOUDY    38  26  62 SE9G16    30.33R WCI  32
EAU CLAIRE     MOCLDY    40  27  59 SE14G23   30.28S WCI  32
MENOMONIE      PTSUNNY   40  28  60 E10       30.26F WCI  34
NEW RICHMOND   MOCLDY    40  26  58 SE14G21   30.19F WCI  32
OSCEOLA        MOCLDY    42  27  56 SE21G29   30.20F
$$

WIZ003>005-009-010-017-018-190900-
NORTH CENTRAL WISCONSIN

CITY           SKY/WX    TMP DP  RH WIND       PRES   REMARKS
WOODRUFF       CLOUDY    33  24  70 SE7       30.34S WCI  27
RHINELANDER    CLOUDY    31  23  72 SE12G21   30.36R WCI  22
EAGLE RIVER    CLOUDY    31  23  73 SE7       30.36R WCI  24
LAND O LAKES   CLOUDY    31  25  79 SE3       30.37R
PHILLIPS       MOCLDY    33  24  68 SE7       30.33R WCI  27
TOMAHAWK       CLOUDY    33  24  70 SE6       30.36R WCI  27
MEDFORD        MOCLDY    34  27  77 SE13      30.34R WCI  25
MERRILL        CLOUDY    34  25  69 CALM      30.38R
$$

WIZ029-030-035-036-043>047-190900-
CENTRAL WISCONSIN

CITY           SKY/WX    TMP DP  RH WIND       PRES   REMARKS
WAUSAU         CLOUDY    34  26  72 SE9       30.37R WCI  27
MOSINEE        CLOUDY    32  28  86 SE9       30.38S WCI  24
MARSHFIELD     MOCLDY    35  26  69 SE13      30.36R WCI  26
STEVENS POINT  MOCLDY    32  24  74 E7        30.38S WCI  25
WAUPACA        MOCLDY    36  27  69 E3        30.42R
WAUTOMA        MOCLDY    34  26  72 E8        30.39S WCI  27
WISC RAPIDS    MOCLDY    35  25  66 SE8       30.39R WCI  29
CAMP DOUGLAS   PTCLDY    35  27  73 E10       30.36R WCI  27
$$

WIZ011>013-019>022-031-037>040-048>050-190900-
NORTHEAST WISCONSIN

CITY           SKY/WX    TMP DP  RH WIND       PRES   REMARKS
ANTIGO         MOCLDY    31  25  79 SE10      30.38R WCI  22
STURGEON BAY   PTCLDY    30  27  86 E6        30.44F WCI  24
GREEN BAY      MOCLDY    33  28  81 E5        30.43S WCI  29
MANITOWOC      CLEAR     33  29  85 E7        30.43F WCI  27
APPLETON       PTCLDY    32  27  80 E9        30.41R WCI  24
CLINTONVILLE   MOCLDY    34  28  80 SE3       30.42R
OSHKOSH        PTCLDY    34  26  72 SE8       30.40R WCI  27
$$

WIZ032>034-041-042-053>061-190900-
SOUTHWEST WISCONSIN

CITY           SKY/WX    TMP DP  RH WIND       PRES   REMARKS
LA CROSSE      MOCLDY    43  31  62 SE9       30.30R
SPARTA         PTCLDY    38  29  70 SE10      30.34R WCI  31
VIROQUA        FAIR      37  31  77 SE14G20   30.31R WCI  29
BOSCOBEL       PTCLDY    39  27  62 E8        30.35R WCI  33
PRAIRIE DU CHI PTCLDY    40  29  66 E14       30.33R WCI  32
PLATTEVILLE    FAIR      35  29  80 E12       30.34R WCI  26
$$

WIZ056-057-062-063-064-067-068-190900-
SOUTH CENTRAL WISCONSIN

CITY           SKY/WX    TMP DP  RH WIND       PRES   REMARKS
BARABOO/DELLS  PTCLDY    34  24  67 SE7       30.36R WCI  28
LONE ROCK      PTCLDY    36  27  69 E8        30.36R WCI  30
WATERTOWN      CLEAR     34  26  71 E9        30.36S WCI  26
MADISON        PTCLDY    34  25  69 E6        30.38R WCI  29
MIDDLETON      FAIR      36  26  67 SE7       30.36F WCI  30
MONROE         PTCLDY    34  26  72 E7        30.33S WCI  28
JANESVILLE     CLEAR     36  25  64 E12       30.35S WCI  27
$$

WIZ051-052-058>065-066-070>072-190900-
SOUTHEAST WISCONSIN

CITY           SKY/WX    TMP DP  RH WIND       PRES   REMARKS
MILWAUKEE      PTCLDY    35  28  75 NE10      30.40S WCI  27
WAUKESHA       CLEAR     32  27  80 NE8       30.39R WCI  25
MILWAUKEE/TIMM CLEAR     34  28  80 NE3       30.41R
RACINE         CLEAR     36  27  69 E9        30.40S WCI  29
BURLINGTON     CLEAR     32  27  80 E3        30.38S
KENOSHA        CLEAR     34  27  75 E9        30.38S WCI  27
FOND DU LAC    PTCLDY    35  25  66 SE7       30.40R WCI  29
SHEBOYGAN      PTCLDY    33  27  78 E7        30.42R WCI  27
WEST BEND      PTCLDY    32  27  80 E7        30.40S WCI  26
JUNEAU         CLEAR     34  23  64 E10       30.39S WCI  26
$$

LSZ147-162-190900-
LAKE SUPERIOR

STATION/POSITION TIME  TEMP    WIND        PRES    WAVE
                       AIR SEA DIR/SP/G            HT/PER
                 (UTC) (F)     (DEG/KT/KT) (MB)    (FT/S)
DEVILS ISLAND    0800   33     100/ 12/ 13 1028.6F
PORT WING        0700   34      40/  6/ 10 1026.1
SAXON HARBOR     0700           CALM  /  3 1027.1F
$$

LMZ867-665-643>646-190900-
LAKE MICHIGAN

STATION/POSITION TIME  TEMP    WIND        PRES    WAVE
                       AIR SEA DIR/SP/G            HT/PER
                 (UTC) (F)     (DEG/KT/KT) (MB)    (FT/S)
NORTHPORT PIER   0700   33      70/  5/  8 1030.8R
SISTER BAY       0723   29        CALM       N/A
KEWAUNEE LAKESHO 0700   34      80/  8/ 10 1031.1R
SHEBOYGAN LAKESH 0800   36      80/ 13/ 14 1030.9F
PORT WASHINGTON  0700   36      60/  6/  8 1030.1
MILWAUKEE LAKESH 0700   36      40/ 10/ 12   N/A
KENOSHA   LAKESH 0800   37      60/ 11/ 14   N/A
$$

TC  - TEMPERATURE IN CELSIUS
VSB - VISIBILITY IN STATUTE MILES
WCI - WIND CHILL INDEX
HX  - HEAT INDEX




USA.gov is the U.S. government's official web portal to all federal, state and local government web resources and services.